Mount Ida, AR

2:38 PM CDT on March 30, 2017 (GMT -0500)
Mount Ida

Weather History for KMWT - July, 2013

Change the Weather History Date:

Tuesday, July 23, 2013

  Actual Average (KHOT) Record (KHOT)
Temperature  
Mean Temperature 83 °F -  
Max Temperature 96 °F 94 °F 105 °F (1974)
Min Temperature 71 °F 70 °F 61 °F (1988)
Cooling Degree Days 18    
Growing Degree Days 33 (Base 50)    
Moisture  
Dew Point 71 °F    
Average Humidity 75    
Maximum Humidity 100    
Minimum Humidity 49    
Precipitation  
Precipitation 1.24 in - - ()
Sea Level Pressure  
Sea Level Pressure 29.88 in    
Wind  
Wind Speed 3 mph (SSW)    
Max Wind Speed 8 mph    
Max Gust Speed 24 mph    
Visibility 8 miles    
Events Fog , Rain    
Averages and records for this station are not official NWS values.
T = Trace of Precipitation, MM = Missing Value Source: NWS Daily Summary

Daily Weather History Graph

Daily Weather History Graph

Search for Another Location

Airport or City:

Trip Planner

Search our weather history database for the weather conditions in past years. The results will help you decide how hot, cold, wet, or windy it might be!

Date:

Astronomy

Jul. 23, 2013 Rise Set
Actual Time 6:18 AM CDT 8:22 PM CDT
Civil Twilight 5:50 AM CDT 8:51 PM CDT
Nautical Twilight 5:15 AM CDT 9:25 PM CDT
Astronomical Twilight 4:38 AM CDT 10:02 PM CDT
Moon 8:58 PM CDT (7/23) 7:22 AM CDT (7/23)
Length of Visible Light 15h 00m
Length of Day
14h 04m
Full, 99% of the Moon is Illuminated
Jul 23
Full
Jul 29
Last Quarter
Aug 6
New
Aug 14
First Quarter
Aug 20
Full

Hourly Weather History & Observations

Time (CDT) Temp. Heat Index Dew Point Humidity Pressure Visibility Wind Dir Wind Speed Gust Speed Precip Events Conditions
12:53 AM 82.9 °F 87.5 °F 71.1 °F 67% 29.87 in 10.0 mi Calm Calm - N/A   Clear
1:53 AM 82.9 °F 87.0 °F 70.0 °F 65% 29.87 in 10.0 mi Calm Calm - N/A   Clear
2:53 AM 82.9 °F 87.0 °F 70.0 °F 65% 29.86 in 10.0 mi Variable 3.5 mph - N/A   Clear
3:53 AM 82.9 °F 87.5 °F 71.1 °F 67% 29.86 in 10.0 mi Variable 3.5 mph - N/A   Clear
4:53 AM 82.0 °F 86.3 °F 71.1 °F 69% 29.85 in 10.0 mi Variable 3.5 mph - N/A   Clear
5:53 AM 81.0 °F 85.2 °F 72.0 °F 74% 29.87 in 10.0 mi Variable 3.5 mph - N/A   Clear
6:53 AM 80.1 °F 83.8 °F 72.0 °F 76% 29.88 in 10.0 mi Calm Calm - N/A   Clear
7:53 AM 82.0 °F 86.7 °F 72.0 °F 71% 29.89 in 10.0 mi Variable 3.5 mph - N/A   Clear
8:53 AM 84.0 °F 90.2 °F 73.0 °F 69% 29.91 in 10.0 mi Variable 3.5 mph - N/A   Clear
9:53 AM 87.1 °F 94.5 °F 73.0 °F 63% 29.91 in 10.0 mi Variable 4.6 mph - N/A   Clear
10:53 AM 88.0 °F 95.6 °F 73.0 °F 61% 29.91 in 10.0 mi Variable 4.6 mph - N/A   Clear
11:53 AM 91.0 °F 100.4 °F 73.9 °F 57% 29.89 in 10.0 mi Variable 6.9 mph - N/A   Clear
12:53 PM 93.0 °F 101.9 °F 73.0 °F 52% 29.87 in 10.0 mi Calm Calm - N/A   Clear
1:53 PM 93.9 °F 104.0 °F 73.9 °F 52% 29.84 in 10.0 mi Calm Calm - N/A   Partly Cloudy
2:53 PM 95.0 °F 104.5 °F 73.0 °F 49% 29.82 in 10.0 mi Variable 3.5 mph - N/A   Partly Cloudy
3:53 PM 91.0 °F 100.4 °F 73.9 °F 57% 29.82 in 10.0 mi Variable 4.6 mph 17.3 mph N/A   Clear
4:18 PM 89.6 °F 96.2 °F 71.6 °F 55% 29.85 in 1.5 mi SSW 6.9 mph - N/A   Haze
4:26 PM 86.0 °F 93.4 °F 73.4 °F 66% 29.84 in 10.0 mi Variable 5.8 mph - N/A   Partly Cloudy
4:53 PM 80.1 °F 83.2 °F 70.0 °F 71% 29.84 in 9.0 mi Variable 5.8 mph - N/A   Mostly Cloudy
5:53 PM 72.0 °F - 69.1 °F 91% 29.89 in 5.0 mi East 8.1 mph 24.2 mph 0.06 in Rain Light Rain
6:53 PM 73.9 °F - 69.1 °F 85% 29.85 in 10.0 mi ESE 8.1 mph 20.7 mph 0.05 in   Clear
7:53 PM 73.0 °F - 69.1 °F 87% 29.84 in 10.0 mi Calm Calm - N/A   Clear
8:53 PM 73.0 °F - 68.0 °F 84% 29.85 in 10.0 mi Calm Calm - N/A   Clear
9:53 PM 72.0 °F - 70.0 °F 93% 29.87 in 10.0 mi Calm Calm - N/A   Partly Cloudy
10:53 PM 73.0 °F - 70.0 °F 90% 29.92 in 9.0 mi Calm Calm - 0.00 in Rain Light Rain
11:07 PM 71.6 °F - 71.6 °F 100% 29.96 in 1.8 mi West 4.6 mph - 0.03 in Rain Heavy Rain
11:17 PM 71.6 °F - 71.6 °F 100% 29.96 in 0.5 mi WSW 5.8 mph - 0.31 in Fog , Rain Heavy Rain
11:26 PM 71.6 °F - 71.6 °F 100% 29.95 in 0.2 mi Variable 5.8 mph - 0.84 in Fog , Rain Heavy Rain
11:30 PM 71.6 °F - 71.6 °F 100% 29.95 in 0.5 mi WNW 6.9 mph - 0.94 in Fog , Rain Heavy Rain
11:37 PM 71.6 °F - 69.8 °F 94% 29.95 in 1.0 mi Variable 3.5 mph - 1.05 in Rain Heavy Rain
11:51 PM 71.1 °F - 70.0 °F 96% 29.92 in 3.0 mi Variable 3.5 mph - 1.13 in Rain Light Rain